Regional Weather Roundup
Issued by NWS

Home | Current Version | Previous Version | Text Only | Print | Product List | Glossary On
Versions: 1 2 3 4 5 6 7 8 9 10 11 12 13 14 15 16 17 18 19 20 21 22 23 24 25 26 27
000
ASPQ40 PGUM 210312
RWRPQ
WEATHER ROUNDUP FOR THE MARIANAS AND MICRONESIA
NATIONAL WEATHER SERVICE TIYAN GU
100 PM CHST TUE FEB 21 2017

GUZ001>004-210400-
MARIANA ISLANDS-

CITY           SKY/WX    TMP DP  RH WIND       PRES   REMARKS
GUAM AIRPORT   MOSUNNY   84  75  74 E12       29.98F HX  92
ANDERSEN AFB   MOSUNNY   82  75  78 E13       29.99F
ROTA AIRPORT   MOSUNNY   81  73  78 E16       29.98F
TINIAN AP      MOSUNNY   84  75  74 NE10      29.97F HX  92
SAIPAN AP      PTSUNNY   84  75  74 E13       29.98F HX  92

$$

PMZ161-210400-
REPUBLIC OF PALAU-

CITY           SKY/WX    TMP DP  RH WIND       PRES   REMARKS
KOROR AP       CLOUDY    82  75  78 NE9       29.89F
KOROR WSO      CLOUDY    82  77  83 E8        29.90F HX  91

$$

PMZ171>174-210400-
FEDERATED STATES OF MICRONESIA-

CITY           SKY/WX    TMP DP  RH WIND       PRES   REMARKS
YAP AIRPORT    CLOUDY    82  77  83 NE10      29.91F HX  91
CHUUK AP       CLOUDY    86  75  70 NE9       29.85F HX  95
POHNPEI AP     PTSUNNY   88  77  70 E17       29.83F HX 100
POHNPEI WSO    PTSUNNY   88  75  66 NE9       29.86F HX  97
KOSRAE AP      NOT AVBL

$$

PMZ181-210400-
REPUBLIC OF THE MARSHALL ISLANDS-

CITY           SKY/WX    TMP DP  RH WIND       PRES   REMARKS
KWAJALEIN AP   MOSUNNY   86  75  70 E18       29.83F HX  95
MAJURO AP      PTSUNNY   86  77  74 NE16      29.80  HX  97
MAJURO WSO     PTSUNNY   86  77  74 NE12      29.79F HX  97

$$





USA.gov is the U.S. government's official web portal to all federal, state and local government web resources and services.